Overview Statistics Trail Chart Weather Telemetry Raw packets
 

This is the latest recevied weather packets stored in our database for station/object W5CDN. If no packets are shown the sender has not sent any weather packets the latest 10 day(s).

<< 31 32 33 34 35 36 37 >>
Time Temp. Humidity Pressure Rain* Wind** Luminosity Snow
1788211736 36.67° C 39% 1012.8 hPa 0 mm - - -
1788211436 37.22° C 40% 1012.8 hPa 0 mm - - -
1788211136 36.67° C 39% 1013 hPa 0 mm - - -
1788210836 36.67° C 39% 1013 hPa 0 mm - - -
1788210536 35.56° C 40% 1013.2 hPa 0 mm - - -
1788210236 36.11° C 41% 1013 hPa 0 mm - - -
1788209936 37.78° C 39% 1013.1 hPa 0 mm - - -
1788209636 37.22° C 39% 1013.3 hPa 0 mm - - -
1788209336 37.22° C 39% 1013.4 hPa 0 mm - - -
1788209036 37.22° C 38% 1013.4 hPa 0 mm - - -
1788208736 37.22° C 39% 1013.6 hPa 0 mm - - -
1788208436 36.67° C 38% 1013.8 hPa 0 mm - - -
1788208136 37.78° C 38% 1013.9 hPa 0 mm - - -
1788207836 37.22° C 40% 1013.8 hPa 0 mm - - -
1788207536 37.78° C 38% 1014 hPa 0 mm - - -
1788207236 36.67° C 40% 1013.9 hPa 0 mm - - -
1788206936 37.22° C 40% 1014 hPa 0 mm - - -
1788206636 37.22° C 40% 1014.2 hPa 0 mm - - -
1788206336 37.78° C 39% 1014.1 hPa 0 mm - - -
1788206036 36.67° C 39% 1014.4 hPa 0 mm - - -
1788205736 37.78° C 38% 1014.3 hPa 0 mm - - -
1788205436 37.22° C 39% 1014.3 hPa 0 mm - - -
1788205136 37.22° C 40% 1014.5 hPa 0 mm - - -
1788204836 36.67° C 42% 1014.4 hPa 0 mm - - -
1788204536 36.11° C 43% 1014.5 hPa 0 mm - - -

* Rain latest hour (hover to see other rain measurements)
** Current wind speed in m/s (hover to see current wind gust speed)